| time (UTC) | temp F | wind direction | speed knots | gust knots | rain 1hr in | rain 24hr in | rain mn in | humidity % | barometer mb |
| 20260510231023 | 67 | 350 | 8.7 | 17.4 | 0.00 | 0.00 | 0.00 | 37 | 1024.8 |
| 20260510230525 | 67 | 310 | 7.8 | 18.2 | 0.00 | 0.00 | 0.00 | 37 | 1024.7 |
| 20260510230037 | 67 | 296 | 11.3 | 18.2 | 0.00 | 0.00 | 0.00 | 38 | 1024.6 |
| 20260510225524 | 67 | 309 | 9.6 | 19.1 | 0.00 | 0.00 | 0.00 | 37 | 1024.6 |
| 20260510225024 | 67 | 39 | 9.6 | 19.1 | 0.00 | 0.00 | 0.00 | 37 | 1024.6 |
| 20260510224538 | 67 | 51 | 10.4 | 22.6 | 0.00 | 0.00 | 0.00 | 37 | 1024.5 |
| 20260510224025 | 67 | 22 | 10.4 | 22.6 | 0.00 | 0.00 | 0.00 | 38 | 1024.5 |
| 20260510223524 | 67 | 309 | 9.6 | 22.6 | 0.00 | 0.00 | 0.00 | 38 | 1024.6 |
| 20260510223036 | 67 | 319 | 10.4 | 22.6 | 0.00 | 0.00 | 0.00 | 38 | 1024.6 |
| 20260510222524 | 67 | 350 | 10.4 | 19.1 | 0.00 | 0.00 | 0.00 | 38 | 1024.6 |
| 20260510222027 | 67 | 10 | 8.7 | 19.1 | 0.00 | 0.00 | 0.00 | 37 | 1024.7 |
| 20260510221537 | 67 | 349 | 9.6 | 18.2 | 0.00 | 0.00 | 0.00 | 37 | 1024.9 |
| 20260510221024 | 68 | 11 | 8.7 | 19.1 | 0.00 | 0.00 | 0.00 | 36 | 1024.8 |
| 20260510220524 | 68 | 13 | 7.8 | 19.1 | 0.00 | 0.00 | 0.00 | 35 | 1024.7 |
| 20260510220036 | 68 | 12 | 9.6 | 17.4 | 0.00 | 0.00 | 0.00 | 36 | 1024.7 |
| 20260510215523 | 68 | 345 | 8.7 | 20.0 | 0.00 | 0.00 | 0.00 | 34 | 1024.7 |
| 20260510215024 | 68 | 332 | 11.3 | 20.0 | 0.00 | 0.00 | 0.00 | 34 | 1024.7 |
| 20260510214538 | 69 | 360 | 7.8 | 15.6 | 0.00 | 0.00 | 0.00 | 32 | 1024.5 |
| 20260510214027 | 69 | 350 | 7.8 | 17.4 | 0.00 | 0.00 | 0.00 | 33 | 1024.4 |
| 20260510213524 | 69 | 316 | 8.7 | 17.4 | 0.00 | 0.00 | 0.00 | 34 | 1024.5 |
| 20260510213046 | 69 | 346 | 10.4 | 17.4 | 0.00 | 0.00 | 0.00 | 32 | 1024.5 |
| 20260510212524 | 69 | 334 | 9.6 | 16.5 | 0.00 | 0.00 | 0.00 | 32 | 1024.6 |
| 20260510212024 | 69 | 285 | 7.0 | 20.0 | 0.00 | 0.00 | 0.00 | 34 | 1024.4 |
| 20260510211537 | 68 | 22 | 7.8 | 20.0 | 0.00 | 0.00 | 0.00 | 33 | 1024.5 |
| 20260510211024 | 68 | 54 | 8.7 | 20.0 | 0.00 | 0.00 | 0.00 | 34 | 1024.4 |
| 20260510210521 | 68 | 351 | 9.6 | 18.2 | 0.00 | 0.00 | 0.00 | 36 | 1024.4 |
| 20260510210035 | 67 | 351 | 8.7 | 18.2 | 0.00 | 0.00 | 0.00 | 37 | 1024.5 |
| 20260510205522 | 66 | 319 | 7.0 | 12.2 | 0.00 | 0.00 | 0.00 | 35 | 1024.7 |
| 20260510205022 | 65 | 20 | 6.1 | 14.8 | 0.00 | 0.00 | 0.00 | 39 | 1025.0 |
| 20260510204546 | 64 | 313 | 6.1 | 16.5 | 0.00 | 0.00 | 0.00 | 42 | 1025.0 |
| 20260510204020 | 63 | 312 | 7.0 | 16.5 | 0.00 | 0.00 | 0.00 | 42 | 1025.2 |
| 20260510203520 | 63 | 5 | 8.7 | 15.6 | 0.00 | 0.00 | 0.00 | 42 | 1025.2 |
| 20260510203036 | 62 | 317 | 7.0 | 14.8 | 0.00 | 0.00 | 0.00 | 43 | 1025.4 |
| 20260510202523 | 62 | 318 | 7.0 | 14.8 | 0.00 | 0.00 | 0.00 | 44 | 1025.7 |
| 20260510202027 | 63 | 350 | 7.0 | 15.6 | 0.00 | 0.00 | 0.00 | 45 | 1025.5 |
| 20260510201535 | 63 | 5 | 8.7 | 17.4 | 0.00 | 0.00 | 0.00 | 44 | 1025.5 |
| 20260510201027 | 64 | 5 | 7.8 | 17.4 | 0.00 | 0.00 | 0.00 | 43 | 1025.4 |
| 20260510200522 | 64 | 331 | 7.8 | 16.5 | 0.00 | 0.00 | 0.00 | 40 | 1025.1 |
| 20260510200037 | 65 | 5 | 9.6 | 16.5 | 0.00 | 0.00 | 0.00 | 39 | 1024.9 |
| 20260510195523 | 65 | 360 | 9.6 | 17.4 | 0.00 | 0.00 | 0.00 | 38 | 1024.7 |
| 20260510195024 | 67 | 319 | 8.7 | 17.4 | 0.00 | 0.00 | 0.00 | 36 | 1024.6 |
| 20260510194542 | 70 | 5 | 7.8 | 20.0 | 0.00 | 0.00 | 0.00 | 33 | 1024.4 |
| 20260510194022 | 72 | 351 | 8.7 | 20.0 | 0.00 | 0.00 | 0.00 | 27 | 1024.4 |
| 20260510193522 | 74 | 55 | 7.8 | 20.0 | 0.00 | 0.00 | 0.00 | 23 | 1024.4 |
| 20260510193044 | 75 | 56 | 7.0 | 20.0 | 0.00 | 0.00 | 0.00 | 24 | 1024.4 |
| 20260510192522 | 74 | 91 | 6.1 | 12.2 | 0.00 | 0.00 | 0.00 | 21 | 1024.3 |
| 20260510192021 | 75 | 96 | 4.3 | 12.2 | 0.00 | 0.00 | 0.00 | 19 | 1024.4 |
| 20260510191538 | 75 | 86 | 5.2 | 12.2 | 0.00 | 0.00 | 0.00 | 20 | 1024.6 |
| 20260510191024 | 74 | 40 | 1.7 | 7.0 | 0.00 | 0.00 | 0.00 | 21 | 1024.6 |
| 20260510190521 | 74 | 164 | 1.7 | 14.8 | 0.00 | 0.00 | 0.00 | 20 | 1024.5 |
| 20260510190039 | 74 | 22 | 5.2 | 14.8 | 0.00 | 0.00 | 0.00 | 21 | 1024.8 |
| 20260510185524 | 73 | 57 | 6.1 | 13.9 | 0.00 | 0.00 | 0.00 | 21 | 1024.9 |
| 20260510185022 | 72 | 44 | 7.0 | 13.9 | 0.00 | 0.00 | 0.00 | 23 | 1024.9 |
| 20260510184536 | 73 | 78 | 6.1 | 11.3 | 0.00 | 0.00 | 0.00 | 23 | 1024.8 |
| 20260510184023 | 73 | 109 | 3.5 | 9.6 | 0.00 | 0.00 | 0.00 | 23 | 1024.7 |
| 20260510183525 | 73 | 0 | 4.3 | 9.6 | 0.00 | 0.00 | 0.00 | 24 | 1024.9 |
| 20260510183035 | 74 | 134 | 5.2 | 12.2 | 0.00 | 0.00 | 0.00 | 21 | 1024.9 |
| 20260510182520 | 74 | 14 | 5.2 | 18.2 | 0.00 | 0.00 | 0.00 | 22 | 1025.0 |
| 20260510182024 | 74 | 86 | 3.5 | 19.1 | 0.00 | 0.00 | 0.00 | 24 | 1024.9 |
| 20260510181538 | 73 | 51 | 7.0 | 19.1 | 0.00 | 0.00 | 0.00 | 25 | 1024.9 |
| 20260510181021 | 72 | 0 | 0.9 | 10.4 | 0.00 | 0.00 | 0.00 | 25 | 1024.9 |
| 20260510180521 | 71 | 35 | 2.6 | 13.0 | 0.00 | 0.00 | 0.00 | 26 | 1024.9 |
| 20260510180042 | 73 | 22 | 3.5 | 13.0 | 0.00 | 0.00 | 0.00 | 25 | 1024.9 |
| 20260510175524 | 73 | 80 | 3.5 | 13.0 | 0.00 | 0.00 | 0.00 | 26 | 1024.9 |
| 20260510175026 | 72 | 137 | 5.2 | 13.0 | 0.00 | 0.00 | 0.00 | 25 | 1024.9 |
| 20260510174537 | 71 | 57 | 1.7 | 13.0 | 0.00 | 0.00 | 0.00 | 26 | 1025.1 |
| 20260510174021 | 71 | 29 | 6.1 | 13.0 | 0.00 | 0.00 | 0.00 | 25 | 1025.2 |
| 20260510173522 | 72 | 102 | 4.3 | 12.2 | 0.00 | 0.00 | 0.00 | 26 | 1025.1 |
| 20260510173036 | 72 | 78 | 3.5 | 12.2 | 0.00 | 0.00 | 0.00 | 26 | 1025.1 |
| 20260510172524 | 71 | 69 | 4.3 | 11.3 | 0.00 | 0.00 | 0.00 | 27 | 1025.2 |
| 20260510172024 | 72 | 132 | 2.6 | 14.8 | 0.00 | 0.00 | 0.00 | 27 | 1025.2 |
| 20260510171536 | 71 | 87 | 5.2 | 14.8 | 0.00 | 0.00 | 0.00 | 27 | 1025.2 |
| 20260510171022 | 70 | 0 | 0.9 | 12.2 | 0.00 | 0.00 | 0.00 | 28 | 1025.2 |
| 20260510170526 | 70 | 76 | 6.1 | 13.9 | 0.00 | 0.00 | 0.00 | 27 | 1025.3 |
| 20260510170043 | 70 | 179 | 6.1 | 13.9 | 0.00 | 0.00 | 0.00 | 28 | 1025.2 |
| 20260510165524 | 71 | 51 | 5.2 | 14.8 | 0.00 | 0.00 | 0.00 | 28 | 1025.1 |
| 20260510165024 | 70 | 108 | 7.0 | 14.8 | 0.00 | 0.00 | 0.00 | 28 | 1025.0 |
| 20260510164548 | 70 | 88 | 4.3 | 12.2 | 0.00 | 0.00 | 0.00 | 27 | 1025.1 |
| 20260510164024 | 70 | 64 | 3.5 | 11.3 | 0.00 | 0.00 | 0.00 | 27 | 1024.9 |
| 20260510163521 | 70 | 73 | 4.3 | 13.9 | 0.00 | 0.00 | 0.00 | 29 | 1024.9 |
| 20260510163038 | 70 | 59 | 2.6 | 13.9 | 0.00 | 0.00 | 0.00 | 27 | 1024.9 |
| 20260510162524 | 70 | 55 | 5.2 | 16.5 | 0.00 | 0.00 | 0.00 | 28 | 1024.9 |
| 20260510162021 | 70 | 65 | 7.0 | 16.5 | 0.00 | 0.00 | 0.00 | 29 | 1024.9 |
| 20260510161538 | 69 | 61 | 3.5 | 13.9 | 0.00 | 0.00 | 0.00 | 31 | 1024.8 |
| 20260510161023 | 69 | 31 | 7.0 | 13.9 | 0.00 | 0.00 | 0.00 | 29 | 1024.8 |
| 20260510160521 | 69 | 17 | 4.3 | 14.8 | 0.00 | 0.00 | 0.00 | 30 | 1024.7 |
| 20260510160037 | 68 | 9 | 7.0 | 14.8 | 0.00 | 0.00 | 0.00 | 29 | 1024.7 |
| 20260510155523 | 68 | 108 | 2.6 | 9.6 | 0.00 | 0.00 | 0.00 | 29 | 1024.6 |
| 20260510155023 | 68 | 67 | 3.5 | 9.6 | 0.00 | 0.00 | 0.00 | 29 | 1024.6 |
| 20260510154546 | 67 | 44 | 2.6 | 11.3 | 0.00 | 0.00 | 0.00 | 29 | 1024.6 |
| 20260510154028 | 67 | 10 | 2.6 | 11.3 | 0.00 | 0.00 | 0.00 | 30 | 1024.6 |
| 20260510153522 | 66 | 349 | 4.3 | 12.2 | 0.00 | 0.00 | 0.00 | 30 | 1024.6 |
| 20260510153034 | 66 | 50 | 4.3 | 12.2 | 0.00 | 0.00 | 0.00 | 31 | 1024.5 |
| 20260510152527 | 66 | 26 | 4.3 | 11.3 | 0.00 | 0.00 | 0.00 | 31 | 1024.4 |
| 20260510152025 | 66 | 66 | 4.3 | 11.3 | 0.00 | 0.00 | 0.00 | 31 | 1024.5 |
| 20260510151542 | 65 | 5 | 2.6 | 10.4 | 0.00 | 0.00 | 0.00 | 31 | 1024.3 |
| 20260510151025 | 65 | 5 | 5.2 | 11.3 | 0.00 | 0.00 | 0.00 | 31 | 1024.3 |
| 20260510150528 | 65 | 341 | 6.1 | 11.3 | 0.00 | 0.00 | 0.00 | 32 | 1024.3 |
| 20260510150043 | 64 | 61 | 6.1 | 12.2 | 0.00 | 0.00 | 0.00 | 32 | 1024.3 |
| 20260510145526 | 64 | 34 | 6.1 | 13.0 | 0.00 | 0.00 | 0.00 | 32 | 1024.2 |
| 20260510145026 | 63 | 22 | 7.8 | 15.6 | 0.00 | 0.00 | 0.00 | 32 | 1024.3 |
| 20260510144550 | 64 | 10 | 7.0 | 15.6 | 0.00 | 0.00 | 0.00 | 32 | 1024.3 |
| 20260510144027 | 64 | 360 | 5.2 | 15.6 | 0.00 | 0.00 | 0.00 | 32 | 1024.2 |
| 20260510143524 | 64 | 5 | 7.0 | 13.9 | 0.00 | 0.00 | 0.00 | 31 | 1024.3 |
| 20260510143051 | 64 | 338 | 3.5 | 11.3 | 0.00 | 0.00 | 0.00 | 32 | 1024.1 |
| 20260510142525 | 63 | 50 | 5.2 | 11.3 | 0.00 | 0.00 | 0.00 | 33 | 1024.1 |
| 20260510142026 | 63 | 65 | 4.3 | 9.6 | 0.00 | 0.00 | 0.00 | 33 | 1024.1 |
| 20260510141535 | 62 | 11 | 6.1 | 9.6 | 0.00 | 0.00 | 0.00 | 33 | 1024.0 |
| 20260510141025 | 62 | 46 | 4.3 | 9.6 | 0.00 | 0.00 | 0.00 | 34 | 1023.9 |
| 20260510140525 | 61 | 350 | 4.3 | 8.7 | 0.00 | 0.00 | 0.00 | 35 | 1023.8 |
| 20260510140045 | 60 | 5 | 3.5 | 8.7 | 0.00 | 0.00 | 0.00 | 35 | 1023.8 |
| 20260510135524 | 60 | 12 | 3.5 | 9.6 | 0.00 | 0.00 | 0.00 | 36 | 1023.7 |
| 20260510135025 | 59 | 23 | 4.3 | 9.6 | 0.00 | 0.00 | 0.00 | 37 | 1023.7 |
| 20260510134539 | 59 | 31 | 3.5 | 7.8 | 0.00 | 0.00 | 0.00 | 37 | 1023.7 |
| 20260510134024 | 58 | 11 | 2.6 | 10.4 | 0.00 | 0.00 | 0.00 | 37 | 1023.7 |
| 20260510133523 | 58 | 328 | 4.3 | 10.4 | 0.00 | 0.00 | 0.00 | 37 | 1023.7 |
| 20260510133038 | 57 | 333 | 2.6 | 7.8 | 0.00 | 0.00 | 0.00 | 38 | 1023.6 |
| 20260510132524 | 57 | 350 | 3.5 | 7.8 | 0.00 | 0.00 | 0.00 | 38 | 1023.6 |
| 20260510132026 | 57 | 5 | 3.5 | 10.4 | 0.00 | 0.00 | 0.00 | 38 | 1023.4 |
| 20260510131545 | 57 | 9 | 2.6 | 10.4 | 0.00 | 0.00 | 0.00 | 38 | 1023.2 |
| 20260510131029 | 57 | 352 | 3.5 | 10.4 | 0.00 | 0.00 | 0.00 | 38 | 1023.2 |
| 20260510130525 | 57 | 13 | 2.6 | 7.8 | 0.00 | 0.00 | 0.00 | 38 | 1023.1 |
| 20260510130038 | 57 | 28 | 1.7 | 7.8 | 0.00 | 0.00 | 0.00 | 38 | 1023.1 |
| 20260510125527 | 57 | 5 | 2.6 | 8.7 | 0.00 | 0.00 | 0.00 | 38 | 1022.9 |
| 20260510125026 | 57 | 352 | 2.6 | 8.7 | 0.00 | 0.00 | 0.00 | 37 | 1022.8 |
| 20260510124539 | 57 | 5 | 4.3 | 8.7 | 0.00 | 0.00 | 0.00 | 37 | 1022.8 |
| 20260510124025 | 57 | 349 | 2.6 | 11.3 | 0.00 | 0.00 | 0.00 | 37 | 1022.7 |
| 20260510123526 | 57 | 319 | 4.3 | 11.3 | 0.00 | 0.00 | 0.00 | 37 | 1022.7 |
| 20260510123046 | 57 | 333 | 3.5 | 10.4 | 0.00 | 0.00 | 0.00 | 37 | 1022.7 |
| 20260510122525 | 57 | 333 | 4.3 | 10.4 | 0.00 | 0.00 | 0.00 | 37 | 1022.8 |
| 20260510122025 | 58 | 314 | 4.3 | 8.7 | 0.00 | 0.00 | 0.00 | 36 | 1022.7 |
| 20260510121540 | 58 | 345 | 3.5 | 12.2 | 0.00 | 0.00 | 0.00 | 36 | 1022.5 |
| 20260510121028 | 58 | 13 | 3.5 | 12.2 | 0.00 | 0.00 | 0.00 | 35 | 1022.6 |
| 20260510120525 | 58 | 350 | 4.3 | 11.3 | 0.00 | 0.00 | 0.00 | 35 | 1022.5 |
| 20260510120042 | 59 | 360 | 3.5 | 11.3 | 0.00 | 0.00 | 0.00 | 35 | 1022.3 |
| 20260510115527 | 59 | 352 | 2.6 | 9.6 | 0.00 | 0.00 | 0.00 | 34 | 1022.4 |
| 20260510115023 | 59 | 348 | 3.5 | 8.7 | 0.00 | 0.00 | 0.00 | 33 | 1022.5 |
| 20260510114543 | 59 | 343 | 2.6 | 8.7 | 0.00 | 0.00 | 0.00 | 32 | 1022.5 |
| 20260510114029 | 60 | 5 | 3.5 | 7.8 | 0.00 | 0.00 | 0.00 | 32 | 1022.4 |
| 20260510113525 | 60 | 9 | 1.7 | 9.6 | 0.00 | 0.00 | 0.00 | 31 | 1022.3 |
| 20260510113036 | 60 | 360 | 3.5 | 12.2 | 0.00 | 0.00 | 0.00 | 31 | 1022.2 |
| 20260510112529 | 60 | 328 | 6.1 | 12.2 | 0.00 | 0.00 | 0.00 | 31 | 1022.0 |
| 20260510112025 | 60 | 352 | 2.6 | 13.9 | 0.00 | 0.00 | 0.00 | 30 | 1022.0 |
| 20260510111534 | 60 | 41 | 6.1 | 15.6 | 0.00 | 0.00 | 0.00 | 30 | 1022.0 |
| 20260510111024 | 61 | 347 | 7.8 | 15.6 | 0.00 | 0.00 | 0.00 | 30 | 1022.1 |
| 20260510110524 | 61 | 56 | 3.5 | 8.7 | 0.00 | 0.00 | 0.00 | 28 | 1022.0 |
| 20260510110035 | 61 | 9 | 2.6 | 8.7 | 0.00 | 0.00 | 0.00 | 27 | 1022.0 |
| 20260510105525 | 62 | 9 | 4.3 | 8.7 | 0.00 | 0.00 | 0.00 | 27 | 1021.9 |
| 20260510105025 | 61 | 348 | 2.6 | 9.6 | 0.00 | 0.00 | 0.00 | 27 | 1021.9 |
| 20260510104540 | 61 | 309 | 3.5 | 13.9 | 0.00 | 0.00 | 0.00 | 28 | 1021.9 |
| 20260510104025 | 60 | 296 | 4.3 | 13.9 | 0.00 | 0.00 | 0.00 | 29 | 1021.9 |
| 20260510103524 | 59 | 316 | 5.2 | 10.4 | 0.00 | 0.00 | 0.00 | 29 | 1022.2 |
| 20260510103039 | 59 | 53 | 2.6 | 10.4 | 0.00 | 0.00 | 0.00 | 28 | 1022.4 |
| 20260510102528 | 59 | 360 | 5.2 | 10.4 | 0.00 | 0.00 | 0.00 | 28 | 1022.0 |
| 20260510102028 | 57 | 24 | 5.2 | 10.4 | 0.00 | 0.00 | 0.00 | 31 | 1022.0 |
| 20260510101538 | 56 | 346 | 1.7 | 4.3 | 0.00 | 0.00 | 0.00 | 33 | 1021.9 |
| 20260510101025 | 55 | 280 | 0.0 | 1.7 | 0.00 | 0.00 | 0.00 | 34 | 1021.8 |
| 20260510100525 | 55 | 0 | 0.9 | 1.7 | 0.00 | 0.00 | 0.00 | 34 | 1021.7 |
| 20260510100036 | 56 | 278 | 0.0 | 1.7 | 0.00 | 0.00 | 0.00 | 35 | 1021.7 |
| 20260510095525 | 56 | 0 | 0.0 | 2.6 | 0.00 | 0.00 | 0.00 | 35 | 1021.6 |
| 20260510095026 | 56 | 0 | 0.9 | 2.6 | 0.00 | 0.00 | 0.00 | 34 | 1021.6 |
| 20260510094537 | 56 | 278 | 0.0 | 2.6 | 0.00 | 0.00 | 0.00 | 34 | 1021.5 |
| 20260510094025 | 56 | 0 | 0.9 | 2.6 | 0.00 | 0.00 | 0.00 | 34 | 1021.4 |
| 20260510093526 | 56 | 278 | 0.0 | 1.7 | 0.00 | 0.00 | 0.00 | 34 | 1021.3 |
| 20260510093045 | 56 | 278 | 0.0 | 1.7 | 0.00 | 0.00 | 0.00 | 33 | 1021.3 |
| 20260510092526 | 57 | 0 | 0.0 | 0.0 | 0.00 | 0.00 | 0.00 | 32 | 1021.3 |
| 20260510092025 | 57 | 0 | 0.0 | 0.0 | 0.00 | 0.00 | 0.00 | 32 | 1021.1 |
| 20260510091543 | 57 | 0 | 0.0 | 1.7 | 0.00 | 0.00 | 0.00 | 32 | 1021.0 |
| 20260510091025 | 57 | 0 | 0.0 | 2.6 | 0.00 | 0.00 | 0.00 | 32 | 1020.9 |
| 20260510090526 | 57 | 0 | 0.9 | 2.6 | 0.00 | 0.00 | 0.00 | 32 | 1020.7 |
| 20260510090040 | 57 | 277 | 0.9 | 2.6 | 0.00 | 0.00 | 0.00 | 32 | 1020.6 |
| 20260510085524 | 57 | 0 | 0.0 | 0.9 | 0.00 | 0.00 | 0.00 | 32 | 1020.5 |
| 20260510085024 | 57 | 0 | 0.0 | 0.9 | 0.00 | 0.00 | 0.00 | 31 | 1020.5 |
| 20260510084541 | 57 | 0 | 0.0 | 2.6 | 0.00 | 0.00 | 0.00 | 31 | 1020.5 |
| 20260510084025 | 57 | 0 | 0.9 | 2.6 | 0.00 | 0.00 | 0.00 | 31 | 1020.5 |
| 20260510083525 | 57 | 277 | 0.9 | 3.5 | 0.00 | 0.00 | 0.00 | 31 | 1020.4 |
| 20260510083036 | 57 | 277 | 0.9 | 3.5 | 0.00 | 0.00 | 0.00 | 30 | 1020.4 |
| 20260510082525 | 57 | 276 | 0.9 | 3.5 | 0.00 | 0.00 | 0.00 | 30 | 1020.4 |
| 20260510082025 | 57 | 271 | 0.0 | 2.6 | 0.00 | 0.00 | 0.00 | 30 | 1020.4 |
| 20260510081535 | 57 | 0 | 0.9 | 2.6 | 0.00 | 0.00 | 0.00 | 30 | 1020.4 |
| 20260510081025 | 58 | 269 | 0.9 | 2.6 | 0.00 | 0.00 | 0.00 | 30 | 1020.3 |
| 20260510080524 | 58 | 269 | 0.9 | 5.2 | 0.00 | 0.00 | 0.00 | 30 | 1020.3 |
| 20260510080036 | 57 | 269 | 0.9 | 5.2 | 0.00 | 0.00 | 0.00 | 30 | 1020.3 |
| 20260510075524 | 57 | 269 | 1.7 | 5.2 | 0.00 | 0.00 | 0.00 | 30 | 1020.4 |
| 20260510075024 | 57 | 273 | 0.9 | 6.1 | 0.00 | 0.00 | 0.00 | 31 | 1020.4 |
| 20260510074547 | 56 | 271 | 0.9 | 6.1 | 0.00 | 0.00 | 0.00 | 31 | 1020.4 |
| 20260510074025 | 56 | 278 | 1.7 | 5.2 | 0.00 | 0.00 | 0.00 | 32 | 1020.4 |
| 20260510073528 | 56 | 291 | 0.9 | 3.5 | 0.00 | 0.00 | 0.00 | 32 | 1020.3 |
| 20260510073058 | 56 | 292 | 0.9 | 1.7 | 0.00 | 0.00 | 0.00 | 31 | 1020.4 |
| 20260510072524 | 57 | 0 | 0.0 | 1.7 | 0.00 | 0.00 | 0.00 | 30 | 1020.4 |
| 20260510072025 | 58 | 0 | 0.0 | 1.7 | 0.00 | 0.00 | 0.00 | 30 | 1020.4 |
| 20260510071538 | 58 | 0 | 0.0 | 2.6 | 0.00 | 0.00 | 0.00 | 29 | 1020.5 |
| 20260510071024 | 59 | 292 | 0.0 | 4.3 | 0.00 | 0.00 | 0.00 | 29 | 1020.4 |
| 20260510070524 | 59 | 0 | 0.9 | 4.3 | 0.00 | 0.00 | 0.00 | 28 | 1020.4 |
| 20260510070037 | 59 | 290 | 2.6 | 4.3 | 0.00 | 0.00 | 0.00 | 28 | 1020.3 |
| 20260510065524 | 59 | 299 | 1.7 | 6.1 | 0.00 | 0.00 | 0.00 | 28 | 1020.4 |
| 20260510065025 | 59 | 299 | 1.7 | 6.1 | 0.00 | 0.00 | 0.00 | 28 | 1020.4 |
| 20260510064548 | 59 | 298 | 2.6 | 6.1 | 0.00 | 0.00 | 0.00 | 28 | 1020.3 |
| 20260510064024 | 59 | 296 | 1.7 | 3.5 | 0.00 | 0.00 | 0.00 | 28 | 1020.3 |
| 20260510063525 | 59 | 0 | 0.9 | 2.6 | 0.00 | 0.00 | 0.00 | 27 | 1020.4 |
| 20260510063035 | 59 | 293 | 0.9 | 3.5 | 0.00 | 0.00 | 0.00 | 27 | 1020.3 |
| 20260510062525 | 59 | 292 | 1.7 | 3.5 | 0.00 | 0.00 | 0.00 | 27 | 1020.2 |
| 20260510062024 | 60 | 292 | 0.9 | 2.6 | 0.00 | 0.00 | 0.00 | 27 | 1020.2 |
| 20260510061542 | 60 | 292 | 0.0 | 3.5 | 0.00 | 0.00 | 0.00 | 26 | 1020.2 |
| 20260510061025 | 60 | 292 | 1.7 | 3.5 | 0.00 | 0.00 | 0.00 | 26 | 1020.2 |
| 20260510060526 | 61 | 292 | 1.7 | 3.5 | 0.00 | 0.00 | 0.00 | 25 | 1020.0 |
| 20260510060038 | 61 | 290 | 0.9 | 3.5 | 0.00 | 0.00 | 0.00 | 24 | 1020.0 |
| 20260510055525 | 61 | 290 | 0.9 | 4.3 | 0.00 | 0.00 | 0.00 | 24 | 1020.1 |
| 20260510055025 | 61 | 291 | 1.7 | 4.3 | 0.00 | 0.00 | 0.00 | 24 | 1020.0 |
| 20260510054543 | 62 | 287 | 1.7 | 3.5 | 0.00 | 0.00 | 0.00 | 24 | 1020.0 |
| 20260510054023 | 62 | 278 | 0.9 | 3.5 | 0.00 | 0.00 | 0.00 | 24 | 1020.0 |
| 20260510053527 | 63 | 277 | 0.0 | 3.5 | 0.00 | 0.00 | 0.00 | 23 | 1020.0 |
| 20260510053043 | 63 | 277 | 0.9 | 5.2 | 0.00 | 0.00 | 0.00 | 23 | 1020.0 |
| 20260510052525 | 63 | 279 | 1.7 | 7.0 | 0.00 | 0.00 | 0.00 | 23 | 1019.9 |
| 20260510052025 | 64 | 275 | 1.7 | 7.0 | 0.00 | 0.00 | 0.00 | 22 | 1020.0 |
| 20260510051547 | 64 | 239 | 0.9 | 3.5 | 0.00 | 0.00 | 0.00 | 22 | 1019.9 |
| 20260510051029 | 64 | 282 | 0.9 | 5.2 | 0.00 | 0.00 | 0.00 | 22 | 1019.8 |
| 20260510050523 | 64 | 282 | 0.9 | 6.1 | 0.00 | 0.00 | 0.00 | 22 | 1019.8 |
| 20260510050036 | 64 | 285 | 1.7 | 6.1 | 0.00 | 0.00 | 0.00 | 21 | 1019.7 |
| 20260510045526 | 64 | 292 | 2.6 | 6.1 | 0.00 | 0.00 | 0.00 | 21 | 1019.7 |
| 20260510045028 | 64 | 277 | 0.9 | 5.2 | 0.00 | 0.00 | 0.00 | 21 | 1019.6 |
| 20260510044540 | 64 | 269 | 1.7 | 6.1 | 0.00 | 0.00 | 0.00 | 21 | 1019.7 |
| 20260510044024 | 64 | 282 | 1.7 | 6.1 | 0.00 | 0.00 | 0.00 | 21 | 1019.8 |
| 20260510043523 | 63 | 283 | 2.6 | 6.1 | 0.00 | 0.00 | 0.00 | 21 | 1019.8 |
| 20260510043041 | 63 | 291 | 0.9 | 2.6 | 0.00 | 0.00 | 0.00 | 22 | 1019.7 |
| 20260510042527 | 63 | 292 | 0.9 | 2.6 | 0.00 | 0.00 | 0.00 | 21 | 1019.7 |
| 20260510042026 | 63 | 292 | 0.9 | 2.6 | 0.00 | 0.00 | 0.00 | 20 | 1019.7 |
| 20260510041541 | 64 | 0 | 0.0 | 3.5 | 0.00 | 0.00 | 0.00 | 19 | 1019.6 |
| 20260510041025 | 64 | 0 | 0.0 | 3.5 | 0.00 | 0.00 | 0.00 | 19 | 1019.6 |
| 20260510040524 | 64 | 292 | 0.9 | 3.5 | 0.00 | 0.00 | 0.00 | 18 | 1019.5 |
| 20260510040045 | 65 | 0 | 0.9 | 3.5 | 0.00 | 0.00 | 0.00 | 18 | 1019.5 |
| 20260510035525 | 65 | 288 | 0.0 | 3.5 | 0.00 | 0.00 | 0.00 | 18 | 1019.4 |
| 20260510035025 | 66 | 290 | 1.7 | 6.1 | 0.00 | 0.00 | 0.00 | 17 | 1019.3 |
| 20260510034544 | 66 | 285 | 1.7 | 6.1 | 0.00 | 0.00 | 0.00 | 17 | 1019.4 |
| 20260510034023 | 66 | 229 | 1.7 | 6.1 | 0.00 | 0.00 | 0.00 | 16 | 1019.4 |
| 20260510033527 | 67 | 237 | 1.7 | 6.1 | 0.00 | 0.00 | 0.00 | 16 | 1019.3 |
| 20260510033035 | 67 | 243 | 2.6 | 6.1 | 0.00 | 0.00 | 0.00 | 16 | 1019.2 |
| 20260510032522 | 67 | 248 | 0.9 | 4.3 | 0.00 | 0.00 | 0.00 | 16 | 1019.0 |
| 20260510032024 | 67 | 242 | 1.7 | 4.3 | 0.00 | 0.00 | 0.00 | 16 | 1018.9 |
| 20260510031539 | 68 | 219 | 0.9 | 4.3 | 0.00 | 0.00 | 0.00 | 16 | 1018.9 |
| 20260510031025 | 68 | 0 | 0.0 | 1.7 | 0.00 | 0.00 | 0.00 | 16 | 1018.8 |
| 20260510030522 | 69 | 0 | 0.0 | 1.7 | 0.00 | 0.00 | 0.00 | 16 | 1018.7 |
| 20260510030038 | 69 | 0 | 0.0 | 5.2 | 0.00 | 0.00 | 0.00 | 15 | 1018.6 |
| 20260510025524 | 70 | 0 | 0.0 | 5.2 | 0.00 | 0.00 | 0.00 | 15 | 1018.5 |
| 20260510025025 | 70 | 206 | 1.7 | 7.0 | 0.00 | 0.00 | 0.00 | 15 | 1018.4 |
| 20260510024539 | 70 | 200 | 1.7 | 7.8 | 0.00 | 0.00 | 0.00 | 15 | 1018.4 |
| 20260510024024 | 70 | 198 | 2.6 | 8.7 | 0.00 | 0.00 | 0.00 | 14 | 1018.3 |
| 20260510023524 | 71 | 190 | 3.5 | 8.7 | 0.00 | 0.00 | 0.00 | 14 | 1018.2 |
| 20260510023037 | 71 | 193 | 4.3 | 9.6 | 0.00 | 0.00 | 0.00 | 14 | 1018.2 |
| 20260510022523 | 71 | 196 | 4.3 | 9.6 | 0.00 | 0.00 | 0.00 | 14 | 1018.2 |
| 20260510022024 | 71 | 191 | 3.5 | 8.7 | 0.00 | 0.00 | 0.00 | 14 | 1018.1 |
| 20260510021536 | 71 | 167 | 3.5 | 8.7 | 0.00 | 0.00 | 0.00 | 13 | 1018.1 |
| 20260510021023 | 72 | 159 | 3.5 | 10.4 | 0.00 | 0.00 | 0.00 | 13 | 1018.1 |
| 20260510020525 | 72 | 197 | 4.3 | 12.2 | 0.00 | 0.00 | 0.00 | 13 | 1018.0 |
| 20260510020035 | 72 | 186 | 6.1 | 12.2 | 0.00 | 0.00 | 0.00 | 13 | 1017.9 |
| 20260510015527 | 73 | 202 | 3.5 | 16.5 | 0.00 | 0.00 | 0.00 | 13 | 1017.9 |
| 20260510015025 | 73 | 108 | 7.0 | 16.5 | 0.00 | 0.00 | 0.00 | 13 | 1017.9 |
| 20260510014543 | 73 | 152 | 8.7 | 21.7 | 0.00 | 0.00 | 0.00 | 12 | 1017.8 |
| 20260510014024 | 74 | 144 | 9.6 | 21.7 | 0.00 | 0.00 | 0.00 | 12 | 1017.7 |
| 20260510013528 | 75 | 165 | 5.2 | 15.6 | 0.00 | 0.00 | 0.00 | 12 | 1017.7 |
| 20260510013039 | 75 | 138 | 5.2 | 21.7 | 0.00 | 0.00 | 0.00 | 12 | 1017.7 |
| 20260510012524 | 75 | 165 | 8.7 | 21.7 | 0.00 | 0.00 | 0.00 | 12 | 1017.6 |
| 20260510012028 | 75 | 164 | 7.0 | 15.6 | 0.00 | 0.00 | 0.00 | 12 | 1017.5 |
| 20260510011539 | 75 | 155 | 6.1 | 15.6 | 0.00 | 0.00 | 0.00 | 12 | 1017.5 |
| 20260510011022 | 75 | 177 | 7.0 | 13.9 | 0.00 | 0.00 | 0.00 | 11 | 1017.4 |
| 20260510010524 | 75 | 171 | 3.5 | 15.6 | 0.00 | 0.00 | 0.00 | 12 | 1017.4 |
| 20260510010044 | 75 | 149 | 5.2 | 17.4 | 0.00 | 0.00 | 0.00 | 11 | 1017.4 |
| 20260510005524 | 75 | 167 | 7.0 | 17.4 | 0.00 | 0.00 | 0.00 | 11 | 1017.4 |
| 20260510005024 | 75 | 192 | 7.0 | 17.4 | 0.00 | 0.00 | 0.00 | 12 | 1017.4 |
| 20260510004536 | 75 | 184 | 7.8 | 17.4 | 0.00 | 0.00 | 0.00 | 11 | 1017.3 |
| 20260510004025 | 76 | 184 | 8.7 | 18.2 | 0.00 | 0.00 | 0.00 | 11 | 1017.4 |
| 20260510003524 | 76 | 157 | 7.8 | 18.2 | 0.00 | 0.00 | 0.00 | 11 | 1017.3 |
| 20260510003055 | 76 | 128 | 7.0 | 14.8 | 0.00 | 0.00 | 0.00 | 11 | 1017.2 |
| 20260510002524 | 76 | 169 | 7.0 | 15.6 | 0.00 | 0.00 | 0.00 | 11 | 1017.3 |
| 20260510002022 | 76 | 169 | 7.0 | 15.6 | 0.00 | 0.00 | 0.00 | 12 | 1017.2 |
| 20260510001542 | 76 | 172 | 6.1 | 13.9 | 0.00 | 0.00 | 0.00 | 12 | 1017.3 |
| 20260510001025 | 76 | 173 | 7.0 | 13.9 | 0.00 | 0.00 | 0.00 | 11 | 1017.2 |
| 20260510000525 | 76 | 165 | 7.8 | 15.6 | 0.00 | 0.00 | 0.00 | 11 | 1017.2 |
| 20260510000046 | 76 | 159 | 7.0 | 17.4 | 0.00 | 0.00 | 0.00 | 11 | 1017.1 |
| 20260509235524 | 76 | 170 | 9.6 | 17.4 | 0.00 | 0.00 | 0.00 | 11 | 1017.2 |
| 20260509235024 | 77 | 188 | 7.8 | 23.5 | 0.00 | 0.00 | 0.00 | 11 | 1017.2 |
| 20260509234539 | 77 | 180 | 10.4 | 23.5 | 0.00 | 0.00 | 0.00 | 10 | 1017.2 |
| 20260509234025 | 78 | 180 | 7.0 | 18.2 | 0.00 | 0.00 | 0.00 | 11 | 1017.1 |
| 20260509233523 | 77 | 181 | 7.8 | 18.2 | 0.00 | 0.00 | 0.00 | 11 | 1017.1 |
| 20260509233035 | 77 | 131 | 7.0 | 14.8 | 0.00 | 0.00 | 0.00 | 12 | 1017.0 |
| 20260509232522 | 77 | 187 | 6.1 | 18.2 | 0.00 | 0.00 | 0.00 | 11 | 1017.2 |
| 20260509232024 | 77 | 172 | 6.1 | 18.2 | 0.00 | 0.00 | 0.00 | 11 | 1017.2 |
| 20260509231536 | 78 | 190 | 4.3 | 13.0 | 0.00 | 0.00 | 0.00 | 11 | 1017.1 |